Tracking 30923 objects as of 1-Jul-2025
HD Live streaming from Space Station
objects crossing your sky now

STARLINK-30998

Track STARLINK-30998 now!
10-day predictions
STARLINK-30998 is classified as:


NORAD ID: 58513
Int'l Code: 2023-191F
Perigee: 565.2 km
Apogee: 567.2 km
Inclination: 43.0 °
Period: 95.8 minutes
Semi major axis: 6937 km
RCS: Unknown
Launch date: December 7, 2023
Source: United States (US)
Launch site: AIR FORCE EASTERN TEST RANGE (AFETR)
Your satellite tracking list
STARLINK-1263
Track 1 satellite(s)




NASA's NSSDC Master Catalog

Two Line Element Set (TLE):
1 58513U 23191F   25181.64017825 -.00000124  00000-0  59023-5 0  9990
2 58513  43.0045  35.7989 0001409 274.2376  85.8305 15.02534553 87553
Source of the keplerian elements: AFSPC